Wind_Speed
34 33 33 32 32 32 32 31 31 31 31 31 31 32 32 32 32 32 32 32 32 32 33 34 34 35 36 36 37 38 38 39 40 41 43 44 44 45 46 47 47 48 49
34 34 33 32 32 31 31 31 31 31 31 31 32 32 33 33 33 33 33 33 33 34 35 35 36 36 37 37 38 39 39 40 42 43 44 45 45 46 47 48 48 49 50
35 34 34 33 32 32 31 31 31 31 31 31 32 33 33 33 33 34 34 34 35 35 36 37 37 37 38 38 39 40 41 42 44 46 47 46 45 46 46 46 47 48 49
35 35 34 33 32 32 32 31 31 31 31 31 32 32 33 33 33 34 35 35 36 36 37 38 38 38 39 40 41 41 43 44 45 46 46 46 46 46 45 45 46 47 49
35 34 34 33 32 31 31 31 31 31 31 32 32 33 33 33 34 35 35 36 37 37 38 39 39 39 40 41 41 42 42 44 44 45 45 45 47 47 47 46 46 47 48
35 34 34 34 33 32 32 32 31 31 32 32 33 33 33 34 35 36 36 37 37 38 39 40 40 40 41 41 41 42 43 44 45 45 45 46 47 47 48 49 48 48 48
36 35 35 34 34 33 33 33 32 32 32 33 33 34 34 35 35 36 37 37 37 38 39 40 40 41 41 41 41 42 43 44 44 45 45 46 47 48 49 50 49 49 49
36 36 35 34 34 34 34 33 33 33 33 33 34 34 35 36 36 36 37 37 38 39 39 40 41 41 41 41 41 42 44 44 44 45 46 46 47 48 49 50 51 51 50
35 35 35 35 34 34 34 34 34 34 34 34 35 35 36 36 36 36 37 37 38 39 40 40 40 40 40 41 41 43 44 44 45 45 46 47 48 49 50 51 53 53 53
35 35 35 35 34 34 35 35 35 35 35 35 35 36 36 36 37 37 37 38 38 39 39 39 39 40 40 41 42 43 44 45 46 46 46 47 49 50 50 51 53 54 55
34 34 34 34 34 34 34 34 35 35 35 35 36 36 36 37 37 37 38 38 38 39 39 39 40 40 41 42 43 44 45 45 45 46 46 47 48 49 50 51 52 53 54
33 33 34 34 34 34 34 34 35 35 35 35 36 36 37 37 37 38 38 39 39 40 40 40 41 41 42 42 43 44 45 45 45 46 47 47 49 49 50 51 52 52 53
33 33 33 34 34 33 34 34 34 34 35 35 36 36 37 37 38 38 39 39 40 40 40 40 40 41 42 42 43 44 44 44 45 46 47 48 49 49 50 50 51 51 51
33 33 33 33 34 33 33 33 34 34 34 35 35 36 36 37 37 38 39 39 39 39 40 40 41 41 42 42 43 43 44 44 45 46 47 47 48 48 48 48 48 48 48
32 33 32 32 32 33 33 33 32 33 34 34 35 35 36 36 37 37 38 38 38 39 39 40 40 41 41 42 43 43 44 44 45 46 46 46 46 46 46 46 46 46 46
31 32 32 32 32 32 32 32 32 33 34 35 35 35 35 35 36 36 36 37 37 37 38 39 40 41 42 43 44 44 44 45 45 45 44 44 44 44 45 45 45 44 44
32 31 32 32 32 31 31 31 32 32 33 34 35 35 34 35 35 35 35 36 36 37 38 39 41 42 43 44 44 44 44 44 44 43 42 42 42 43 43 43 43 42 42
32 33 32 32 31 31 31 31 31 32 32 33 34 34 34 34 35 35 35 35 37 38 38 39 41 42 43 43 43 42 42 42 42 41 41 41 42 42 41 40 40 39 38
33 34 33 32 32 31 30 30 31 31 31 32 33 33 34 34 34 34 35 35 36 37 38 40 41 42 42 41 41 40 40 40 40 40 40 40 40 40 40 39 38 37 36
34 35 34 33 32 32 31 30 31 31 31 31 32 33 34 34 34 35 35 35 36 37 38 39 40 40 39 38 38 39 39 39 38 38 37 37 38 38 38 37 36 35 34
33 34 34 34 33 32 32 32 31 31 31 32 32 33 34 34 35 35 36 36 37 38 38 39 38 37 37 37 38 38 37 36 35 35 34 35 35 35 35 35 35 34 34
33 33 34 34 34 33 33 33 33 32 32 32 33 33 33 34 35 35 36 36 36 37 37 36 36 35 35 35 35 35 34 34 34 33 32 32 32 32 32 32 32 32 32
33 33 33 33 34 34 33 33 33 33 33 33 33 32 33 33 33 34 35 35 35 35 35 35 34 33 33 33 32 32 31 31 32 31 31 31 31 31 31 31 30 30 29
32 32 32 33 33 33 33 33 33 33 33 33 33 33 32 32 33 33 34 33 33 33 32 32 31 31 31 31 31 31 30 30 30 30 30 30 31 30 30 29 29 28 27
30 31 32 32 32 32 33 33 33 33 33 33 33 33 33 32 32 32 31 31 31 31 31 30 29 30 30 30 29 29 29 29 30 30 29 30 29 29 28 27 26 25 24
28 29 30 31 31 32 32 32 33 33 33 33 33 33 32 32 31 30 29 29 29 29 28 28 28 28 28 28 28 27 28 28 29 29 28 28 27 27 26 24 23 23 22
Wind_Direction
239 240 241 243 245 246 248 248 249 251 253 255 256 257 257 259 260 261 263 265 268 270 272 274 275 276 277 279 280 280 281 282 282 282 283 284 284 284 284 283 283 283 282
239 240 241 243 245 246 247 249 250 252 253 255 256 257 257 259 260 262 264 267 269 271 274 275 276 278 279 280 281 281 282 283 283 284 285 284 283 284 284 284 284 284 283
239 240 241 242 244 246 248 249 251 252 253 255 256 257 258 261 262 264 266 268 270 272 274 275 277 278 280 282 282 283 283 284 285 286 287 286 285 284 284 283 284 284 283
239 240 241 242 244 246 247 249 251 252 253 254 255 257 260 262 264 266 268 270 272 273 274 275 277 278 280 282 284 284 284 285 286 287 288 288 288 288 286 285 286 286 285
239 239 240 241 242 244 247 249 251 253 254 255 256 258 260 263 265 267 269 272 273 275 276 276 277 279 280 282 284 284 286 287 288 288 287 288 289 290 289 288 287 286 285
238 238 239 240 241 244 247 249 251 253 255 256 257 259 261 264 267 269 271 273 274 276 277 277 278 280 281 283 283 284 286 288 289 288 288 289 290 290 291 291 290 288 287
238 237 238 241 243 245 247 249 251 254 256 258 259 261 263 266 268 271 272 274 275 277 278 279 279 281 282 282 283 285 287 289 289 289 289 290 292 292 292 292 291 290 289
238 239 240 242 244 245 247 249 252 254 257 259 260 263 265 267 269 271 272 274 276 277 279 280 280 281 282 283 284 286 288 289 290 289 290 291 293 294 293 293 292 291 290
238 240 241 243 244 246 248 250 252 255 257 259 261 264 266 267 268 270 272 274 277 278 280 281 281 281 282 283 285 287 288 289 290 290 291 292 293 294 294 294 294 294 293
238 240 242 244 245 247 249 251 253 256 258 260 261 263 265 266 268 270 272 275 277 279 280 281 281 281 282 284 286 288 289 290 290 290 291 293 294 294 294 294 295 296 296
239 241 243 245 246 247 249 252 254 256 258 260 261 263 264 266 268 270 272 274 277 279 279 280 281 281 283 285 286 288 290 290 291 291 292 293 294 294 295 295 296 297 297
240 242 243 245 246 248 250 252 253 255 257 259 261 263 265 267 269 270 272 275 278 279 279 280 281 282 283 285 286 289 290 291 291 292 293 294 295 295 296 297 297 297 297
241 242 244 245 246 248 250 252 253 255 257 259 262 264 265 267 269 271 273 276 277 278 279 280 282 283 284 286 288 290 290 291 292 293 294 295 295 296 297 298 298 298 298
241 242 244 245 246 247 249 252 254 256 258 260 262 264 266 268 269 272 275 276 277 279 280 281 283 284 286 288 289 290 291 291 292 294 294 295 296 297 298 298 298 299 299
240 241 243 245 247 248 250 252 255 257 259 261 263 265 267 268 271 273 275 276 278 280 281 283 284 285 287 289 291 291 292 292 293 294 295 296 297 297 298 299 299 300 300
238 239 242 245 247 249 250 252 255 257 259 261 263 266 268 269 272 274 275 277 279 280 282 283 284 286 288 290 292 292 293 294 294 295 295 296 296 297 298 299 300 301 301
238 239 241 244 247 249 251 254 256 258 260 262 264 266 268 271 274 274 276 277 279 281 283 284 285 287 289 291 292 292 293 294 295 295 296 296 296 297 298 299 300 301 302
239 240 241 244 246 249 251 254 257 260 262 263 265 267 269 272 274 275 277 279 280 282 284 285 287 289 291 292 292 293 294 295 296 296 296 295 296 297 298 298 300 301 302
240 241 242 245 247 249 252 255 258 260 262 265 266 268 270 272 273 275 277 278 281 283 285 287 290 291 291 292 292 293 295 296 297 296 295 295 296 297 298 299 300 301 301
243 243 244 246 248 250 253 257 259 260 263 266 268 270 271 272 273 275 276 278 281 284 286 289 291 291 291 291 292 294 296 297 297 296 296 296 297 298 299 300 301 301 301
246 245 247 248 249 252 255 258 260 261 264 267 269 270 272 273 274 275 277 279 282 284 287 290 292 292 292 292 293 295 296 297 297 296 297 298 299 300 300 300 301 301 301
246 247 247 249 251 253 256 259 261 263 266 268 270 272 272 273 274 276 277 279 282 285 288 291 292 293 293 294 295 296 297 297 298 298 299 300 301 302 303 303 302 302 302
247 247 248 249 251 253 256 260 262 265 266 268 270 272 272 273 275 277 278 281 283 286 288 290 291 292 294 296 297 297 296 297 298 299 301 302 302 303 303 303 303 303 303
247 248 248 250 252 254 256 259 262 265 266 267 270 271 273 274 276 278 280 282 284 286 288 290 290 292 294 295 295 296 296 297 298 299 300 301 303 304 303 304 304 304 304
248 249 249 250 252 254 257 260 263 265 266 267 270 271 272 274 276 278 280 282 284 287 288 289 291 292 293 294 295 295 296 298 298 299 300 302 303 305 305 305 305 305 305
249 250 251 252 254 256 257 259 262 263 265 267 268 269 270 272 276 279 281 284 286 287 288 290 292 293 294 295 296 297 298 298 299 300 301 302 303 305 305 305 304 305 304
Height
5732 5735 5738 5740 5743 5745 5747 5749 5751 5752 5754 5755 5757 5758 5759 5759 5760 5760 5761 5761 5761 5760 5760 5759 5759 5757 5756 5755 5753 5752 5750 5749 5747 5745 5743 5741 5738 5736 5733 5731 5728 5725 5723
5724 5728 5730 5733 5735 5738 5740 5742 5743 5745 5747 5748 5749 5750 5751 5751 5752 5753 5753 5753 5752 5752 5751 5751 5750 5748 5747 5745 5744 5742 5740 5738 5736 5734 5732 5730 5729 5725 5722 5719 5716 5713 5710
5716 5720 5723 5725 5728 5731 5733 5734 5736 5738 5739 5740 5741 5742 5743 5744 5744 5745 5745 5744 5744 5743 5742 5741 5740 5739 5737 5736 5734 5731 5729 5727 5725 5722 5719 5716 5714 5713 5711 5707 5704 5700 5697
5708 5712 5715 5718 5720 5723 5725 5727 5728 5730 5731 5732 5733 5734 5735 5736 5736 5736 5736 5735 5735 5734 5733 5732 5730 5729 5727 5726 5723 5721 5718 5716 5713 5710 5706 5703 5700 5697 5697 5696 5692 5688 5685
5700 5704 5707 5710 5712 5715 5717 5719 5721 5722 5723 5724 5725 5726 5727 5728 5728 5727 5727 5726 5725 5724 5723 5721 5720 5719 5717 5715 5713 5710 5708 5705 5702 5698 5695 5692 5688 5684 5682 5682 5680 5677 5673
5692 5695 5698 5701 5704 5707 5709 5711 5713 5714 5715 5716 5717 5718 5719 5719 5719 5718 5718 5717 5715 5714 5712 5711 5709 5708 5706 5704 5702 5700 5697 5694 5691 5687 5684 5680 5677 5673 5669 5667 5666 5664 5661
5683 5687 5690 5694 5697 5699 5701 5703 5705 5706 5707 5708 5709 5709 5710 5710 5709 5709 5708 5707 5705 5704 5702 5700 5698 5697 5695 5693 5691 5689 5686 5683 5680 5677 5673 5669 5665 5661 5657 5654 5651 5650 5649
5675 5678 5682 5685 5688 5690 5693 5695 5696 5698 5699 5699 5700 5700 5700 5700 5700 5699 5698 5696 5695 5693 5691 5689 5687 5686 5684 5683 5681 5678 5676 5673 5669 5666 5662 5659 5654 5650 5645 5641 5637 5636 5635
5666 5670 5673 5676 5679 5682 5684 5686 5688 5689 5690 5690 5691 5691 5690 5690 5689 5689 5688 5686 5684 5683 5681 5679 5677 5675 5674 5672 5670 5668 5665 5662 5658 5655 5651 5647 5643 5639 5634 5629 5624 5620 5617
5658 5661 5664 5667 5670 5673 5675 5677 5678 5680 5680 5681 5681 5681 5681 5680 5680 5679 5678 5676 5674 5672 5670 5668 5666 5665 5663 5661 5659 5657 5654 5651 5647 5644 5640 5636 5632 5627 5622 5617 5612 5605 5600
5649 5653 5655 5658 5661 5663 5666 5668 5669 5670 5671 5671 5671 5671 5671 5671 5670 5669 5668 5666 5665 5663 5660 5659 5657 5655 5653 5651 5649 5646 5643 5640 5636 5632 5629 5625 5620 5616 5611 5605 5600 5594 5587
5640 5643 5646 5649 5652 5654 5656 5658 5659 5660 5661 5661 5662 5662 5661 5661 5660 5659 5658 5657 5655 5653 5651 5648 5646 5645 5642 5640 5638 5635 5632 5629 5625 5622 5618 5614 5609 5604 5599 5594 5588 5582 5576
5632 5635 5638 5640 5643 5645 5647 5649 5650 5651 5651 5652 5652 5652 5652 5651 5650 5649 5648 5646 5645 5643 5641 5639 5637 5634 5632 5630 5627 5624 5621 5618 5614 5610 5606 5602 5597 5593 5587 5582 5576 5571 5565
5623 5626 5629 5631 5634 5636 5638 5639 5640 5641 5642 5642 5642 5642 5642 5642 5641 5639 5638 5636 5635 5633 5631 5629 5626 5624 5622 5619 5617 5614 5611 5607 5604 5599 5595 5590 5586 5581 5576 5571 5565 5560 5554
5614 5617 5620 5622 5624 5626 5628 5630 5631 5632 5632 5633 5633 5633 5632 5632 5631 5629 5628 5626 5625 5623 5621 5619 5616 5614 5611 5609 5606 5603 5600 5597 5593 5588 5584 5579 5574 5569 5564 5559 5555 5549 5544
5605 5608 5611 5613 5615 5617 5619 5621 5622 5623 5623 5623 5624 5623 5623 5622 5621 5620 5618 5617 5615 5613 5611 5609 5607 5604 5601 5598 5595 5592 5589 5585 5581 5577 5573 5568 5564 5559 5554 5549 5544 5539 5533
5597 5599 5602 5604 5607 5608 5610 5612 5613 5613 5614 5614 5614 5614 5613 5613 5612 5610 5609 5608 5606 5604 5602 5599 5597 5594 5591 5588 5584 5581 5577 5574 5570 5566 5562 5558 5554 5549 5545 5540 5535 5530 5524
5588 5591 5593 5596 5598 5600 5601 5602 5603 5604 5605 5605 5605 5605 5604 5603 5602 5601 5600 5598 5596 5594 5592 5589 5587 5584 5580 5577 5573 5570 5566 5563 5559 5555 5552 5548 5544 5539 5535 5531 5526 5521 5516
5579 5582 5584 5587 5589 5591 5592 5594 5595 5595 5596 5596 5595 5595 5594 5594 5593 5591 5590 5588 5587 5585 5582 5579 5576 5573 5570 5566 5562 5559 5556 5553 5550 5546 5542 5538 5534 5530 5525 5521 5517 5513 5508
5570 5573 5575 5578 5580 5582 5583 5585 5586 5586 5587 5587 5586 5586 5585 5584 5583 5582 5581 5579 5577 5575 5572 5569 5566 5562 5559 5555 5552 5549 5547 5544 5540 5537 5532 5528 5524 5520 5516 5512 5508 5505 5501
5561 5564 5566 5569 5571 5573 5574 5576 5576 5577 5577 5577 5577 5576 5576 5575 5574 5573 5571 5569 5567 5565 5562 5559 5556 5553 5549 5546 5543 5540 5537 5534 5531 5528 5524 5520 5516 5512 5508 5503 5500 5496 5492
5552 5555 5557 5559 5561 5563 5565 5566 5567 5568 5568 5568 5568 5567 5566 5565 5564 5563 5562 5560 5557 5555 5553 5550 5547 5544 5540 5537 5534 5531 5528 5525 5522 5519 5515 5511 5508 5504 5500 5496 5492 5488 5484
5543 5546 5548 5550 5552 5554 5555 5557 5557 5558 5558 5558 5558 5558 5557 5556 5555 5554 5552 5550 5548 5546 5543 5541 5538 5535 5532 5529 5526 5523 5520 5517 5514 5510 5507 5503 5500 5496 5493 5489 5484 5481 5477
5534 5536 5539 5541 5543 5544 5546 5547 5548 5548 5549 5549 5549 5548 5548 5547 5546 5544 5543 5541 5539 5537 5535 5532 5530 5527 5525 5521 5518 5516 5513 5510 5506 5503 5500 5496 5493 5489 5485 5481 5478 5474 5470
5525 5527 5529 5531 5533 5534 5535 5537 5538 5539 5539 5539 5539 5539 5539 5538 5537 5536 5534 5532 5530 5528 5526 5524 5522 5519 5517 5514 5511 5508 5505 5502 5499 5496 5493 5489 5486 5482 5478 5475 5471 5468 5464
5517 5518 5520 5522 5523 5525 5526 5527 5528 5529 5530 5530 5530 5530 5530 5529 5528 5527 5526 5524 5522 5520 5518 5516 5514 5512 5509 5506 5503 5500 5497 5494 5492 5489 5486 5482 5479 5476 5472 5469 5466 5462 5459